Weather in Kisangani

Democratic Republic of the Congo     0°32′04″N   25°11′13″E
temp.,
°C
wind,
m/s
gust,
m/s
humid.,
%
clouds,
%
prec.,
mm/h
press.,
hPa
HPBL,
m
12 may, wed
wed1201:00+20s009399 0.2 101213
04:00+20ene009610 0.0 101213
07:00+24se117881 0.0 1014250
10:00+31sse125156 0.0 10131262
13:00+28sw1264100 0.1 1009383
16:00+29ssw116134 0.0 100968
19:00+22wnw119724 1.2 101142
22:00+21sse019872 0.6 101212
13 may, thu
thu1301:00+21s0097100 0.6 101112
04:00+21ene1198100 0.0 101224
07:00+23e129175 0.0 1014227
10:00+30se235356 0.0 10121291
13:00+33sse233949 0.0 10082487
16:00+28wnw116492 0.0 100712
19:00+24nne117539 0.0 100912
22:00+23nw018036 0.0 101011
14 may, fri
fri1401:00+22ese008548 0.0 100912
04:00+21wsw119021 0.0 101113
07:00+25e117414 0.0 1013248
10:00+32se124612 0.0 10111131
13:00+35se123431 0.0 10082733
16:00+31ene115182 0.0 100712
19:00+27sse115760 0.0 100811
22:00+24nne117130 0.0 101021
15 may, sat
sat1501:00+22ese007897 0.0 101011
04:00+21nne118263 0.0 101116
07:00+25e127243 0.0 1013271
10:00+32ese01476 0.0 10111264
13:00+35w003710 0.0 10072359
16:00+32ne115035 0.0 100731
19:00+26ese116638 0.0 100817
22:00+24nnw0173100 0.1 100911
16 may, sun
sun1601:00+23ne117888 0.1 100916
04:00+21ene1191100 0.3 101124
07:00+24ne1384100 0.3 1012253
10:00+32e11507 0.0 10111261
13:00+34ene114488 0.1 10082103
16:00+26ese268136 0.9 1008324
19:00+23nne11925 1.4 100924
22:00+22sse159721 0.4 1011152